Zurück zum Katalog

STARLINK-36314

AktivKommunikationSSO
NORAD 68741·PAYLOAD·🇺🇸 United States

Gestartet Apr 15, 2026 von Vandenberg Space Force Base

Loading…

Nächste Überflüge (nächste 24 Stunden)

TLE

AktuellSource: CelesTrak SupGP

Epoche: Sep 15, 2026, 03:01 UTC

1 68741C 26082P   26258.12618056  .00014179  00000+0  44004-3 0  2580
2 68741  97.2850 120.3067 0001876  98.5127  90.7188 15.33439739    13

Verfolge STARLINK-36314 in Echtzeit mit AllMySat

Download on the App Store